Simultaneous Nadir Overpasses (SNOs) Predictions

Prediction of SNOs between AURA and NPP Satellite Orbit:

Table of predicted SNOs for the next 14.0 days since TLE Epoch: 7/15/2023
Index Date (AURA) Time (AURA) Lat,Lon (AURA) SZA (AURA ) Date (NPP) Time (NPP) Lat,Lon (NPP) SZA (NPP ) Distance(km) Time Diff (sec)
1 07/17/2023 00:40:07 -79.74,-110.88 108.73 07/17/2023 00:38:56 -79.75,-110.73 108.71 3.15 71
2 07/17/2023 01:29:26 79.95, 58.40 70.95 07/17/2023 01:29:34 79.95, 58.50 70.93 1.96 8
3 07/19/2023 16:05:54 79.79,-161.95 71.66 07/19/2023 16:05:05 79.79,-161.91 71.69 0.94 49
4 07/19/2023 16:55:15 -79.98, 7.21 108.64 07/19/2023 16:55:44 -79.98, 7.25 108.67 0.71 29
5 07/22/2023 07:31:43 -79.79, 146.64 107.85 07/22/2023 07:31:16 -79.79, 146.54 107.82 2.01 27
6 07/22/2023 08:21:02 79.99, -44.11 71.84 07/22/2023 08:21:54 79.99, -44.25 71.83 2.78 52
7 07/24/2023 22:57:27 79.88, 95.88 72.55 07/24/2023 22:57:23 79.88, 95.85 72.56 0.59 4
8 07/24/2023 23:46:48 -80.07, -94.89 107.76 07/24/2023 23:48:02 -80.07, -94.93 107.80 0.79 74
9 07/27/2023 13:33:51 79.77,-124.06 73.29 07/27/2023 13:32:52 79.77,-124.06 73.33 0.28 59



Historial Predications of SNOs between AURA and NPP
